Theta_e
319 322 327 326 330 329 332 333 330 333 334 332 335 335 336 336 337 340 335 334 335 332 314 321 332 334 328 325 324 329 326 321 317 314 312 311 310 309 308 308 308 309 310 310 310 312 313 315 315
318 322 327 328 332 331 329 329 332 332 329 330 333 332 334 337 338 335 335 330 331 327 312 327 332 333 329 322 328 326 324 319 315 313 312 311 310 310 311 312 309 308 309 310 310 312 313 314 314
317 324 329 331 331 329 328 327 332 328 329 332 332 330 332 335 338 335 337 326 330 318 314 330 335 333 331 323 325 328 321 315 313 312 312 311 316 319 325 327 312 309 309 309 310 311 311 312 313
318 326 326 332 331 330 326 324 328 329 327 327 330 332 332 331 337 337 329 323 320 313 314 330 333 332 329 324 318 319 315 314 313 312 311 311 311 313 326 328 324 311 309 309 310 310 310 311 311
319 326 332 332 332 327 323 323 327 330 328 327 329 332 334 332 334 335 326 320 315 312 314 328 332 332 327 324 316 316 316 316 315 313 311 311 310 310 312 312 314 311 310 310 310 310 310 310 310
323 327 331 333 331 326 323 323 327 329 325 327 328 331 336 333 335 335 324 319 314 312 313 319 325 319 319 319 319 320 318 315 314 312 311 311 310 310 310 311 311 311 310 310 310 310 311 311 311
323 328 331 332 332 326 325 324 327 327 325 327 328 330 334 335 336 336 331 323 318 312 313 319 325 326 327 327 325 323 319 316 313 313 312 311 311 310 310 310 310 311 311 310 310 310 311 311 311
324 326 329 330 331 330 324 323 323 324 325 323 328 328 330 336 336 337 335 325 316 313 314 319 329 330 330 328 327 325 319 314 314 318 316 317 315 313 312 311 311 311 311 311 311 311 311 311 311
323 327 329 330 330 329 321 325 319 320 324 326 327 325 323 332 337 337 336 332 322 316 313 315 321 324 329 329 328 325 320 317 316 318 318 317 316 314 313 312 312 312 312 312 312 311 311 312 313
322 325 326 327 328 327 322 324 321 324 325 326 327 324 324 333 337 337 336 333 328 321 316 313 314 317 323 326 323 321 318 316 315 314 314 316 316 315 313 312 312 312 312 313 313 314 315 314 314
320 321 322 324 325 325 323 323 322 324 325 324 326 328 325 333 338 337 336 334 330 326 321 314 313 313 314 316 318 316 314 313 313 314 313 313 314 314 313 313 313 313 313 314 314 316 316 317 317
319 318 319 323 324 324 324 323 324 325 326 325 326 328 325 331 337 337 336 335 332 329 326 319 315 314 313 313 314 314 314 315 315 315 315 314 314 314 314 314 314 314 315 315 316 317 318 319 319
318 317 317 321 321 323 321 323 325 325 324 326 325 325 326 328 333 336 335 334 334 332 329 324 317 318 319 320 320 321 321 322 321 321 320 319 318 317 317 318 318 318 318 319 319 320 321 321 322
316 317 318 320 319 321 324 323 323 325 325 326 326 329 326 326 329 333 335 335 334 331 329 326 322 326 327 327 326 326 326 326 325 324 323 323 322 321 321 321 320 321 321 322 323 324 325 326 326
317 318 318 319 319 319 321 324 324 323 324 328 329 331 331 327 328 332 333 334 334 333 333 331 330 330 330 329 329 328 326 326 325 324 324 323 323 322 322 322 322 324 326 327 327 327 327 327 328
319 318 318 317 318 318 317 324 324 321 325 327 330 331 331 331 329 331 332 330 329 328 327 328 329 329 330 330 329 328 327 327 326 324 322 321 321 321 322 324 324 325 326 326 326 327 327 328 326
318 320 318 319 317 318 316 319 315 317 320 326 329 330 330 331 330 328 327 328 328 329 329 330 330 331 331 332 332 331 331 330 328 327 325 323 323 324 325 326 326 327 326 325 325 326 326 325 325
321 320 319 318 318 318 318 317 315 314 317 322 325 327 329 329 330 327 328 328 329 329 329 328 328 329 330 331 331 331 331 330 329 327 325 323 324 325 326 327 327 326 325 323 324 325 327 326 325
317 319 319 316 315 319 320 319 318 316 315 318 320 321 322 323 327 328 329 329 329 329 329 328 328 327 327 327 328 329 329 330 330 329 329 329 328 329 329 329 326 324 324 323 325 327 327 326 326
315 317 315 315 314 317 316 319 319 317 317 316 317 318 319 320 322 325 326 327 328 327 327 328 329 329 329 329 330 330 330 330 330 330 330 330 330 329 329 328 325 325 323 322 323 327 328 327 326
316 314 312 313 313 310 311 315 315 313 312 314 315 316 316 316 316 318 320 321 322 322 322 325 327 328 329 330 330 330 330 330 330 330 330 330 330 330 330 329 326 323 321 319 322 325 325 324 324
317 314 312 315 314 312 309 315 311 309 309 308 311 313 314 314 316 316 316 316 317 317 318 319 320 322 323 323 324 326 328 329 330 330 330 330 330 330 330 330 327 321 319 319 321 323 321 323 322
313 312 313 312 313 313 312 311 314 307 310 309 307 306 307 309 310 313 314 314 314 316 315 315 315 315 315 315 315 314 314 314 315 316 319 321 323 324 327 329 323 320 319 320 322 323 322 322 322
311 314 314 315 314 316 312 312 313 311 310 308 307 309 309 308 307 307 308 309 310 312 314 314 314 313 312 311 311 311 311 311 312 313 313 315 316 318 320 319 318 318 320 320 321 322 320 323 321
313 314 316 316 319 314 307 311 311 311 310 306 306 305 308 309 308 309 309 309 309 309 310 310 310 310 310 310 310 310 310 310 310 310 311 312 313 314 313 314 316 319 322 319 322 324 324 322 320
313 311 313 314 315 312 306 313 314 308 305 306 307 307 308 309 310 310 310 310 311 311 311 311 312 312 313 313 313 312 311 311 311 311 311 311 311 313 314 316 320 322 319 320 324 323 322 321 320
312 312 311 314 308 314 313 310 308 309 307 307 306 307 308 309 310 310 311 311 311 311 312 312 312 312 312 311 311 311 312 314 315 314 312 312 312 314 317 321 321 319 323 323 322 321 320 317 311
311 310 314 315 316 315 312 308 311 310 307 307 308 308 308 309 310 310 311 311 311 311 311 311 310 310 310 310 309 309 309 309 309 312 315 316 314 314 317 318 319 321 322 321 319 316 309 306 305
311 311 312 311 311 311 310 309 307 307 306 306 306 307 308 309 309 310 311 310 309 308 307 307 307 306 306 307 307 308 308 309 308 308 308 312 315 317 318 319 319 319 318 315 308 306 305 304 304
310 310 311 312 313 311 309 312 310 306 305 306 307 306 308 309 309 310 310 308 307 306 305 305 305 305 305 305 305 305 306 308 308 307 307 306 307 308 310 311 311 309 306 305 305 304 304 303 303
Wind_Speed
10 4 3 3 5 5 4 5 2 8 8 5 16 5 8 1 2 2 8 20 23 25 22 22 19 19 14 12 13 12 10 8 7 6 4 4 5 7 7 8 8 8 8 8 8 8 8 8 11
8 3 3 3 5 7 4 5 9 9 7 11 10 3 6 3 2 3 17 22 26 24 25 25 20 18 15 13 12 11 9 6 6 5 5 5 6 7 8 8 8 8 8 7 7 7 6 6 7
6 3 4 3 4 8 3 7 8 8 12 13 8 3 2 2 4 9 12 25 27 24 26 25 22 19 15 12 13 11 8 6 6 5 5 5 6 7 6 7 7 7 6 6 6 5 5 4 5
2 3 2 6 8 4 2 5 11 15 6 8 6 5 2 5 4 10 24 26 26 24 25 24 21 18 16 13 13 11 8 6 6 5 5 6 5 7 11 8 3 5 5 4 4 4 4 4 4
4 4 5 6 9 2 4 3 13 14 10 10 8 5 4 5 7 16 23 27 25 24 24 23 20 18 17 14 12 10 8 7 6 5 5 6 6 5 6 4 3 3 3 2 2 2 2 3 4
5 3 6 10 8 3 3 7 13 13 7 7 6 6 4 8 13 22 24 25 23 23 24 23 20 18 17 14 11 9 7 7 7 6 5 4 4 4 4 3 2 1 0 0 1 2 4 4 6
6 6 8 7 7 4 5 12 12 13 8 8 4 6 4 13 17 23 23 23 22 23 24 23 21 19 16 13 11 9 7 7 8 7 6 4 4 4 4 4 3 3 3 3 3 4 4 5 6
4 4 6 6 7 5 7 12 6 12 9 6 7 5 5 15 22 25 24 24 22 22 24 23 20 18 16 15 13 10 8 6 8 6 6 4 3 3 3 3 4 4 4 4 5 5 5 5 6
5 5 9 9 8 4 10 10 6 5 6 6 8 3 6 17 25 27 27 25 24 22 21 21 20 19 17 15 14 13 10 7 5 6 6 5 4 3 3 4 4 5 5 5 5 5 6 7 8
7 7 10 4 6 5 10 10 11 7 8 8 7 9 9 20 27 30 30 26 25 25 24 22 20 19 18 17 15 13 12 10 9 8 7 6 6 6 6 6 6 6 6 6 6 7 8 9 9
5 7 5 5 5 6 9 9 9 7 8 11 14 14 14 25 27 30 28 24 26 24 22 21 20 18 18 17 16 15 13 12 11 10 9 9 9 9 8 8 8 8 8 8 9 9 10 10 11
5 6 3 3 5 5 8 6 8 13 2 6 7 13 15 26 29 31 29 26 26 24 22 19 18 17 17 17 16 14 13 12 11 10 11 11 11 10 10 10 10 10 10 10 11 11 11 12 13
6 3 5 2 3 3 6 7 5 12 6 4 10 11 15 23 26 27 24 24 23 22 21 20 19 17 16 16 15 15 14 13 12 13 13 12 12 12 11 11 11 11 11 11 12 13 13 14 14
2 3 3 2 3 2 4 4 3 8 11 7 10 13 14 19 22 24 22 23 22 20 21 20 20 18 17 17 17 16 16 15 15 15 15 15 15 14 13 12 12 12 12 12 13 14 14 15 15
2 5 2 4 3 2 2 4 7 3 12 8 10 12 14 17 18 20 21 21 20 18 19 20 18 17 17 16 16 16 15 16 17 17 16 16 16 14 14 13 12 12 13 14 15 16 17 17 17
3 2 6 4 5 1 4 11 8 7 8 12 11 12 14 16 17 17 18 19 18 18 18 16 18 18 17 17 16 16 16 16 16 16 17 17 16 15 15 15 13 14 16 17 18 18 20 18 18
1 5 8 2 3 2 7 7 3 5 7 11 11 12 13 14 17 18 19 19 18 18 18 19 19 20 19 19 19 19 18 19 19 19 19 18 17 17 18 18 16 16 18 20 20 21 20 21 20
5 6 5 12 4 3 7 12 2 4 5 11 11 11 13 15 16 18 19 18 18 18 19 19 21 21 20 20 21 22 22 21 21 20 19 19 19 18 19 19 18 18 20 20 21 21 20 22 18
2 3 6 0 2 4 10 12 11 5 6 10 12 14 14 14 14 17 19 20 20 20 21 20 21 20 22 23 24 24 23 21 20 19 18 19 19 19 19 20 20 19 19 19 20 19 20 19 19
2 1 1 0 2 2 2 14 12 9 10 13 14 14 15 12 13 16 18 19 19 20 20 21 21 20 21 22 22 22 21 21 21 21 20 20 20 20 20 21 21 21 21 21 21 20 19 18 17
4 2 1 2 1 2 2 8 10 5 11 14 18 19 17 16 14 16 18 19 20 20 19 20 21 22 24 24 24 24 26 26 26 25 25 23 22 21 22 22 21 21 22 23 23 19 20 19 20
3 2 3 3 2 4 2 6 4 3 9 8 16 17 20 19 22 21 19 20 20 20 19 19 18 18 19 20 21 23 25 27 27 28 28 26 26 25 24 23 23 22 23 23 21 18 17 19 18
5 3 1 2 2 1 4 5 4 1 5 7 5 8 13 18 21 22 23 25 25 23 21 19 18 19 19 20 21 22 24 25 26 27 27 27 26 25 24 23 22 21 21 20 19 17 16 17 17
11 5 3 2 1 5 2 4 8 4 3 1 1 3 6 7 10 16 18 19 23 22 20 19 19 19 20 21 21 22 24 24 24 24 23 22 21 20 20 20 20 20 19 19 17 16 16 15 14
6 7 3 4 4 6 3 3 9 11 6 4 4 7 6 2 5 9 10 11 13 15 15 14 14 14 15 15 16 17 18 20 21 22 21 20 20 20 20 20 19 18 18 18 16 15 15 15 13
9 12 5 6 4 1 2 6 2 3 5 5 7 9 7 7 7 9 10 10 10 10 9 9 8 7 6 5 6 6 6 8 9 12 15 17 16 16 16 16 16 17 17 15 14 14 14 14 14
5 8 8 3 2 1 4 5 10 10 3 4 4 6 10 9 10 10 10 10 10 10 9 8 7 5 4 2 1 1 1 2 3 4 5 8 12 12 12 13 15 15 13 13 15 14 14 13 12
5 11 6 4 4 5 5 5 7 6 6 8 5 6 10 11 11 11 11 11 10 10 9 8 7 5 3 2 0 1 2 2 3 3 4 4 7 9 11 13 14 14 14 14 14 13 11 9 8
4 5 3 5 1 3 3 4 4 3 2 5 10 10 9 11 12 12 12 12 12 11 10 8 7 5 4 2 1 2 3 4 4 4 5 5 6 7 9 11 12 13 13 13 11 10 9 8 7
1 0 6 4 4 3 2 7 4 5 4 7 11 8 8 10 11 12 13 14 13 13 11 10 7 4 2 1 2 3 4 5 5 5 5 6 6 7 8 9 10 10 10 9 9 9 9 10 10
Wind_Direction
330 327 165 178 232 238 213 181 158 154 163 160 159 185 193 51 215 28 160 168 169 168 166 160 163 162 161 160 160 158 154 163 173 171 166 144 119 117 112 103 100 97 95 91 88 90 87 80 67
322 280 181 243 249 225 191 156 191 158 144 149 163 166 189 140 133 158 153 165 165 169 166 162 166 167 164 166 168 170 175 180 178 169 151 128 124 125 115 99 98 96 96 90 84 82 77 74 65
313 240 228 238 242 248 236 181 164 133 146 162 166 201 172 143 161 164 163 161 164 170 168 168 169 170 170 174 180 178 179 184 181 167 160 146 125 111 115 89 97 98 93 86 80 82 73 61 52
281 230 216 240 228 229 259 175 164 149 169 188 178 170 148 170 159 159 161 165 165 171 171 168 171 176 179 184 186 184 187 190 187 174 180 156 140 129 127 125 121 117 100 91 84 70 60 41 25
244 236 228 237 240 239 231 200 176 171 156 176 185 157 147 186 169 164 163 164 167 169 173 172 176 183 187 189 192 190 195 199 197 190 189 172 166 154 154 159 131 106 94 71 49 33 13 2 350
220 235 225 226 217 200 209 188 173 184 165 165 192 159 148 181 168 165 165 166 168 170 173 178 180 186 187 192 190 191 201 201 196 193 196 186 183 173 171 178 199 219 152 220 273 306 316 319 320
247 220 236 237 237 220 185 167 188 183 179 185 170 187 163 172 168 171 168 169 171 176 177 178 181 184 188 193 193 198 207 209 189 185 195 198 195 191 204 212 225 238 253 260 260 276 288 297 302
228 245 207 221 210 215 152 168 197 189 182 170 173 193 178 189 169 169 173 175 178 181 185 184 182 187 194 197 199 206 215 219 182 173 186 190 199 214 214 227 246 254 261 271 274 280 288 297 305
195 219 224 211 191 170 158 186 167 186 160 180 193 168 167 182 171 171 173 178 183 187 192 192 193 192 190 204 208 211 217 228 222 208 208 209 216 239 246 248 261 272 279 280 282 289 298 303 301
217 219 221 228 190 176 178 193 168 175 175 189 200 197 177 177 178 178 181 181 186 190 192 196 200 202 201 205 211 217 224 226 232 234 237 234 235 241 249 261 270 282 291 293 293 296 299 302 302
181 230 218 210 192 151 168 196 178 193 201 206 201 194 185 179 183 186 187 189 192 194 198 200 202 205 209 213 215 221 228 231 235 240 244 246 247 252 256 262 271 278 284 286 288 291 294 296 299
202 227 203 168 190 167 164 179 193 209 165 196 189 194 195 185 189 191 193 193 196 200 203 205 206 209 212 216 221 227 232 237 240 245 248 251 253 255 261 266 270 276 280 284 285 286 290 293 296
224 186 182 182 207 210 157 183 220 215 211 199 201 195 197 189 193 198 199 201 202 204 206 208 210 213 216 220 225 230 235 240 244 246 248 252 257 259 261 266 272 275 278 281 281 285 287 290 292
238 174 147 181 206 210 193 155 180 212 199 200 190 190 195 193 195 197 201 204 206 207 209 211 214 218 224 229 234 238 242 243 243 247 251 253 256 260 264 268 270 274 277 278 282 285 288 290 292
174 172 138 194 200 223 201 180 211 196 195 195 191 193 191 193 197 200 203 206 209 212 214 217 220 223 228 233 236 239 244 246 248 250 251 253 255 258 262 264 268 276 277 278 281 285 287 288 294
175 177 192 151 182 218 219 223 195 189 197 204 199 198 196 198 199 198 203 206 210 213 216 218 222 226 230 235 239 244 245 248 250 250 251 251 252 255 259 263 268 272 276 279 280 281 284 290 294
167 205 206 186 210 187 220 236 148 194 196 213 208 202 203 202 206 205 207 210 215 219 223 226 228 232 235 240 243 247 249 249 251 251 250 250 251 253 259 265 269 274 278 280 283 283 281 286 289
175 204 211 213 165 220 212 240 177 205 223 219 217 216 210 213 216 213 214 218 221 225 228 230 231 233 236 240 242 244 246 246 247 250 251 249 250 252 258 264 271 274 277 283 285 283 281 282 278
288 223 216 205 36 216 232 254 244 218 247 236 230 224 228 224 218 223 223 225 229 232 234 235 235 233 233 235 237 241 244 248 252 255 255 253 253 254 257 263 269 273 276 282 280 277 277 280 282
44 231 199 8 11 220 283 263 258 243 247 236 236 241 239 233 226 225 227 229 232 236 237 235 234 232 232 235 240 244 250 252 253 253 253 252 254 255 257 261 267 272 277 282 282 278 280 283 283
228 265 226 355 93 67 310 272 248 231 245 252 247 245 248 244 237 234 234 232 232 235 236 235 236 236 238 240 243 246 248 252 254 257 257 257 259 259 259 259 262 267 274 279 280 274 279 276 282
252 267 245 149 200 251 322 261 238 240 254 247 250 250 252 250 249 243 237 235 233 232 231 231 232 234 235 238 242 247 251 255 258 259 261 261 259 259 259 259 262 264 272 276 277 271 269 275 281
198 13 111 126 152 262 204 261 227 21 258 241 238 254 260 256 251 247 242 235 232 229 229 230 232 235 238 242 247 251 255 258 260 262 262 261 261 260 258 257 257 262 267 270 269 265 270 270 273
136 93 50 46 68 254 206 259 242 207 234 82 340 326 304 274 240 227 228 230 226 226 229 234 241 247 252 255 257 257 258 259 259 260 262 263 260 257 253 253 257 258 259 262 263 261 262 267 261
110 158 202 223 211 250 54 245 285 287 278 286 289 309 319 272 185 188 190 192 203 212 220 227 235 242 247 250 252 254 258 260 261 261 261 260 259 258 257 257 255 252 256 263 257 254 258 261 262
154 193 191 204 214 322 71 242 226 242 266 270 284 295 234 202 181 175 172 173 177 184 188 191 194 199 207 217 233 245 254 265 267 263 257 254 253 252 250 247 244 246 257 254 252 253 252 258 261
164 205 201 46 95 286 248 258 263 293 20 2 326 259 217 206 195 185 179 177 170 165 165 168 169 172 180 187 206 273 296 302 301 292 273 255 248 246 241 238 243 253 245 246 256 256 255 257 257
195 144 124 181 197 229 229 258 248 266 357 341 318 238 220 211 208 200 185 178 174 167 166 165 165 164 164 176 179 310 308 315 304 294 281 260 242 238 239 243 247 250 252 256 255 251 246 240 240
145 176 104 131 225 263 280 233 211 246 43 331 324 296 245 223 217 204 192 184 175 168 163 158 147 136 121 90 41 343 317 316 311 299 289 275 264 256 252 252 255 258 260 257 251 241 234 233 237
269 134 191 201 191 249 289 254 295 319 8 349 331 300 253 243 223 205 193 184 178 168 163 157 144 127 104 46 354 338 330 323 311 307 300 291 280 270 263 260 259 255 249 243 239 238 240 244 245